Miscellaneous Local Product
Issued by NWS Hastings, NE

Home | Current Version | Previous Version | Graphics & Text | Print | Product List | Glossary On
Versions: 1 2 3 4 5 6 7 8 9 10 11 12 13 14 15 16 17 18 19 20 21 22 23 24 25 26 27 28 29 30 31 32 33 34 35 36 37 38 39 40 41 42 43 44 45 46 47 48 49 50
000
AXUS43 KGID 230302
MISGRI

GID CWA HOURLY WEATHER ROUNDUP
NATIONAL WEATHER SERVICE HASTINGS NE
1000 PM CDT MON AUG 22 2016

NOTE: "FAIR" INDICATES FEW OR NO CLOUDS BELOW 12,000 FEET WITH NO
SIGNIFICANT WEATHER AND/OR OBSTRUCTIONS TO VISIBILITY.

...SOUTH CENTRAL NEBRASKA...

CITY           SKY/WX    TMP DP  RH WIND       PRES   REMARKS
GRAND ISLAND   CLOUDY    73  59  61 S17G28    29.94R
HASTINGS       CLOUDY    74  57  55 S15G24    29.96R
KEARNEY        CLOUDY   N/A N/A N/A S16G23    29.93R
ORD            PTCLDY    75  59  57 S13       29.89R
YORK           PTCLDY    72  59  64 S13       29.97R
AURORA         PTCLDY    73  58  59 S17G23    29.96R
LEXINGTON      CLOUDY    76  59  55 S12G20    29.92R
HOLDREGE       CLOUDY    74  56  53 SE13G18   29.94R
HEBRON         MOCLDY    72  59  64 S9        29.99R

...NEBRASKA PANHANDLE...

CITY           SKY/WX    TMP DP  RH WIND       PRES   REMARKS
CHADRON        PTCLDY    82  51  34 S21       29.74R
ALLIANCE       PTCLDY    72  55  55 S12       29.84R
SCOTTSBLUFF    CLEAR     68  56  65 E5        29.85R
SIDNEY         PTCLDY    70  55  59 S10       29.91R

...WESTERN AND NORTH CENTRAL NEBRASKA...

CITY           SKY/WX    TMP DP  RH WIND       PRES   REMARKS
VALENTINE      CLOUDY    81  56  42 S15       29.80R
AINSWORTH      PTCLDY    78  60  53 S18G24    29.83R
ONEILL         MOCLDY    77  59  53 S15G24    29.87R
BROKEN BOW     MOCLDY    75  60  59 S12       29.90R
IMPERIAL       PTCLDY    78  57  48 SE16      29.89R
NORTH PLATTE   MOCLDY    80  58  46 S15G22    29.87R
MCCOOK         CLOUDY    78  57  48 S13G20    29.89R

...EASTERN NEBRASKA...

CITY           SKY/WX    TMP DP  RH WIND       PRES   REMARKS
NORFOLK        PTCLDY    73  59  61 S16G23    29.92R
SO SIOUX CITY  CLOUDY    72  60  66 SE12      29.93R
TEKAMAH        MOCLDY    69  61  75 S10       29.96R
COLUMBUS       CLOUDY    72  55  56 S9        29.95R
ALBION         CLOUDY    71  61  69 S9        29.93R
OMAHA EPPLEY   MOCLDY    75  59  57 S14       29.99R
OFFUTT AFB     PTCLDY    72  61  69 SE13G20   29.99R
MILLARD        MOCLDY    72  62  69 SE8       29.99R
LINCOLN        MOCLDY    73  59  61 S12       29.98R
NEBRASKA CITY  PTCLDY    69  59  71 S8        30.02R
BEATRICE       CLOUDY    73  58  59 SE9G16    29.99R
FALLS CITY     PTCLDY    69  62  78 SE9       30.02R

...NORTHERN KANSAS...

CITY           SKY/WX    TMP DP  RH WIND       PRES   REMARKS
GOODLAND       CLOUDY    68  62  81 CALM      29.95R THUNDER
HILL CITY      MOCLDY    79  55  43 SE12G20   29.93R
NORTON         CLEAR     79  48  34 SE14      29.92R
SMITH CENTER   CLEAR     72  57  60 SE16      29.96R
BELOIT         CLEAR     70  57  64 SE8       29.97R
HAYS           CLEAR     75  50  41 SE14      29.96R
RUSSELL        CLEAR     73  54  51 SE16      29.96R
CONCORDIA      CLOUDY    72  57  59 SE12      29.99R
SALINA         PTCLDY    75  60  59 SE12      30.00R
TOPEKA         PTCLDY    71  63  75 SE9       30.05R



USA.gov is the U.S. government's official web portal to all federal, state and local government web resources and services.